When you browse on this site, cookies collect data to enhance your experience and personalize the content and advertising you see.
Visit our Privacy Policy to learn more. By continuing to use the site, you agree to this use of cookies and data.
  • In Belgien
  • Länderverzeichnis
  • Für 7 Tage
  • Wassertemperatur
  • Wetterkarte
  • Widgets
  • user-avatar
    Anmelden

    Stündliche Wetter Smolenskoe

    Heute, 4 April, Samstag

    Zeit Temperatur Niederschläge Wind Luftdruck Luftfeuchtigkeit
    00:00 +5°C° 0 mm 5 m/S 740 mmHg 60%
    01:00 +5°C° 0 mm 4 m/S 740 mmHg 64%
    02:00 +4°C° 0 mm 4 m/S 740 mmHg 68%
    03:00 +3°C° 0 mm 3 m/S 741 mmHg 73%
    04:00 +3°C° 0 mm 3 m/S 741 mmHg 78%
    05:00 +3°C° 0 mm 3 m/S 741 mmHg 82%
    06:00 +2°C° 0 mm 3 m/S 742 mmHg 86%
    07:00 +3°C° 0 mm 3 m/S 742 mmHg 81%
    08:00 +4°C° 0 mm 4 m/S 743 mmHg 76%
    09:00 +5°C° 0 mm 4 m/S 743 mmHg 69%
    10:00 +6°C° 0 mm 5 m/S 744 mmHg 61%
    11:00 +7°C° 0 mm 6 m/S 744 mmHg 52%
    12:00 +8°C° 0 mm 6 m/S 744 mmHg 44%
    13:00 +8°C° 0.1 mm 7 m/S 745 mmHg 43%
    14:00 +8°C° 0.1 mm 7 m/S 745 mmHg 43%
    15:00 +8°C° 0.1 mm 7 m/S 745 mmHg 42%
    16:00 +6°C° 0 mm 7 m/S 745 mmHg 41%
    17:00 +7°C° 0 mm 6 m/S 746 mmHg 41%
    18:00 +5°C° 0 mm 6 m/S 746 mmHg 40%
    19:00 +6°C° 0 mm 5 m/S 747 mmHg 46%
    20:00 +5°C° 0 mm 4 m/S 747 mmHg 52%
    21:00 +4°C° 0 mm 3 m/S 748 mmHg 58%
    22:00 +3°C° 0 mm 3 m/S 748 mmHg 62%
    23:00 +2°C° 0 mm 3 m/S 749 mmHg 66%

    Morgen, 5 April, Sonntag

    Zeit Temperatur Niederschläge Wind Luftdruck Luftfeuchtigkeit
    00:00 +2°C° 0 mm 3 m/S 749 mmHg 69%
    01:00 +1°C° 0 mm 3 m/S 749 mmHg 71%
    02:00 +1°C° 0 mm 3 m/S 750 mmHg 72%
    03:00 0°C° 0 mm 3 m/S 750 mmHg 73%
    04:00 +1°C° 0 mm 2 m/S 750 mmHg 73%
    05:00 +1°C° 0 mm 2 m/S 750 mmHg 72%
    06:00 +1°C° 0 mm 2 m/S 750 mmHg 72%
    07:00 +1°C° 0 mm 3 m/S 750 mmHg 66%
    08:00 +1°C° 0 mm 4 m/S 750 mmHg 61%
    09:00 +3°C° 0 mm 4 m/S 750 mmHg 55%
    10:00 +3°C° 0.2 mm 5 m/S 750 mmHg 56%
    11:00 +3°C° 0.2 mm 5 m/S 750 mmHg 56%
    12:00 +4°C° 0.2 mm 6 m/S 750 mmHg 56%
    13:00 +4°C° 0.3 mm 7 m/S 750 mmHg 52%
    14:00 +4°C° 0.3 mm 8 m/S 750 mmHg 47%
    15:00 +3°C° 0.3 mm 9 m/S 750 mmHg 42%
    16:00 +3°C° 0.1 mm 9 m/S 751 mmHg 43%
    17:00 +2°C° 0.1 mm 9 m/S 751 mmHg 44%
    18:00 +1°C° 0.1 mm 9 m/S 751 mmHg 45%
    19:00 +1°C° 0 mm 8 m/S 752 mmHg 47%
    20:00 0°C° 0 mm 7 m/S 752 mmHg 50%
    21:00 -1°C° 0 mm 6 m/S 753 mmHg 53%
    22:00 -1°C° 0 mm 6 m/S 753 mmHg 56%
    23:00 -1°C° 0 mm 5 m/S 753 mmHg 58%

    übermorgen, 6 April, Montag

    Zeit Temperatur Niederschläge Wind Luftdruck Luftfeuchtigkeit
    00:00 -1°C° 0 mm 4 m/S 754 mmHg 61%
    01:00 -1°C° 0 mm 5 m/S 754 mmHg 61%
    02:00 -2°C° 0 mm 5 m/S 754 mmHg 60%
    03:00 -2°C° 0 mm 5 m/S 755 mmHg 60%
    04:00 -2°C° 0 mm 5 m/S 755 mmHg 60%
    05:00 -2°C° 0 mm 4 m/S 755 mmHg 59%
    06:00 -2°C° 0 mm 4 m/S 756 mmHg 58%
    07:00 -2°C° 0 mm 5 m/S 756 mmHg 52%
    08:00 -1°C° 0 mm 5 m/S 756 mmHg 46%
    09:00 -1°C° 0 mm 6 m/S 757 mmHg 40%
    10:00 +1°C° 0 mm 6 m/S 757 mmHg 39%
    11:00 +1°C° 0 mm 6 m/S 757 mmHg 37%
    12:00 +2°C° 0 mm 6 m/S 757 mmHg 36%
    13:00 +3°C° 0 mm 6 m/S 757 mmHg 38%
    14:00 +4°C° 0 mm 6 m/S 757 mmHg 39%
    15:00 +4°C° 0 mm 6 m/S 756 mmHg 41%
    16:00 +4°C° 0 mm 6 m/S 756 mmHg 45%
    17:00 +5°C° 0 mm 5 m/S 756 mmHg 50%
    18:00 +5°C° 0 mm 5 m/S 756 mmHg 54%
    19:00 +4°C° 0 mm 4 m/S 756 mmHg 60%
    20:00 +4°C° 0 mm 3 m/S 756 mmHg 66%
    21:00 +3°C° 0 mm 3 m/S 757 mmHg 72%
    22:00 +3°C° 0 mm 3 m/S 757 mmHg 75%
    23:00 +3°C° 0 mm 2 m/S 757 mmHg 79%

    7 April, Dienstag

    Zeit Temperatur Niederschläge Wind Luftdruck Luftfeuchtigkeit
    00:00 +3°C° 0 mm 2 m/S 757 mmHg 83%
    01:00 +2°C° 0 mm 2 m/S 757 mmHg 83%
    02:00 +2°C° 0 mm 2 m/S 758 mmHg 83%
    03:00 +2°C° 0 mm 2 m/S 758 mmHg 83%
    04:00 +3°C° 0 mm 1 m/S 758 mmHg 84%
    05:00 +2°C° 0 mm 1 m/S 758 mmHg 85%
    06:00 +2°C° 0 mm 1 m/S 759 mmHg 86%
    07:00 +3°C° 0 mm 1 m/S 759 mmHg 79%
    08:00 +4°C° 0 mm 1 m/S 759 mmHg 73%
    09:00 +3°C° 0 mm 0 m/S 759 mmHg 67%
    10:00 +5°C° 0 mm 1 m/S 759 mmHg 64%
    11:00 +6°C° 0 mm 1 m/S 759 mmHg 60%
    12:00 +8°C° 0 mm 1 m/S 759 mmHg 56%
    13:00 +7°C° 0 mm 2 m/S 759 mmHg 57%
    14:00 +8°C° 0 mm 2 m/S 758 mmHg 58%
    15:00 +8°C° 0 mm 3 m/S 758 mmHg 58%
    16:00 +9°C° 0 mm 3 m/S 758 mmHg 59%
    17:00 +9°C° 0 mm 3 m/S 757 mmHg 60%
    18:00 +8°C° 0 mm 4 m/S 757 mmHg 62%
    19:00 +7°C° 0 mm 4 m/S 756 mmHg 66%
    20:00 +6°C° 0 mm 4 m/S 756 mmHg 71%
    21:00 +6°C° 0 mm 4 m/S 756 mmHg 76%
    22:00 +6°C° 0 mm 4 m/S 755 mmHg 76%
    23:00 +5°C° 0 mm 4 m/S 755 mmHg 77%

    8 April, Mittwoch

    Zeit Temperatur Niederschläge Wind Luftdruck Luftfeuchtigkeit
    00:00 +5°C° 0 mm 5 m/S 755 mmHg 77%
    01:00 +5°C° 0 mm 5 m/S 754 mmHg 78%
    02:00 +5°C° 0 mm 5 m/S 754 mmHg 78%
    03:00 +3°C° 0 mm 5 m/S 753 mmHg 78%
    04:00 +3°C° 0 mm 5 m/S 752 mmHg 78%
    05:00 +3°C° 0 mm 5 m/S 752 mmHg 77%
    06:00 +3°C° 0 mm 5 m/S 751 mmHg 76%
    07:00 +4°C° 0 mm 6 m/S 750 mmHg 72%
    08:00 +5°C° 0 mm 6 m/S 750 mmHg 67%
    09:00 +6°C° 0 mm 7 m/S 749 mmHg 62%
    10:00 +9°C° 0 mm 7 m/S 749 mmHg 60%
    11:00 +10°C° 0 mm 7 m/S 749 mmHg 57%
    12:00 +12°C° 0 mm 7 m/S 748 mmHg 55%
    13:00 +12°C° 0.1 mm 7 m/S 748 mmHg 56%
    14:00 +12°C° 0.1 mm 7 m/S 748 mmHg 58%
    15:00 +13°C° 0.1 mm 6 m/S 748 mmHg 60%
    16:00 +11°C° 0 mm 6 m/S 747 mmHg 60%
    17:00 +10°C° 0 mm 6 m/S 747 mmHg 59%
    18:00 +9°C° 0 mm 6 m/S 747 mmHg 59%
    19:00 +8°C° 0 mm 5 m/S 747 mmHg 66%
    20:00 +7°C° 0 mm 4 m/S 748 mmHg 73%
    21:00 +7°C° 0 mm 4 m/S 748 mmHg 80%
    22:00 +6°C° 0 mm 4 m/S 748 mmHg 83%
    23:00 +7°C° 0 mm 3 m/S 748 mmHg 85%

    9 April, Donnerstag

    Zeit Temperatur Niederschläge Wind Luftdruck Luftfeuchtigkeit
    00:00 +5°C° 0 mm 3 m/S 748 mmHg 88%
    01:00 +5°C° 0 mm 3 m/S 748 mmHg 90%
    02:00 +4°C° 0 mm 3 m/S 748 mmHg 91%
    03:00 +4°C° 0 mm 3 m/S 748 mmHg 93%
    04:00 +4°C° 0 mm 3 m/S 748 mmHg 93%
    05:00 +4°C° 0 mm 2 m/S 748 mmHg 92%
    06:00 +4°C° 0 mm 2 m/S 748 mmHg 92%
    07:00 +4°C° 0 mm 3 m/S 747 mmHg 86%
    08:00 +7°C° 0 mm 3 m/S 747 mmHg 80%
    09:00 +8°C° 0 mm 3 m/S 747 mmHg 75%
    10:00 +8°C° 0 mm 4 m/S 746 mmHg 69%
    11:00 +11°C° 0 mm 4 m/S 746 mmHg 63%
    12:00 +12°C° 0 mm 5 m/S 745 mmHg 57%
    13:00 +13°C° 0 mm 5 m/S 745 mmHg 54%
    14:00 +13°C° 0 mm 6 m/S 744 mmHg 50%
    15:00 +14°C° 0 mm 6 m/S 743 mmHg 46%
    16:00 +14°C° 0 mm 6 m/S 743 mmHg 48%
    17:00 +14°C° 0 mm 6 m/S 742 mmHg 51%
    18:00 +14°C° 0 mm 6 m/S 741 mmHg 53%
    19:00 +13°C° 0 mm 6 m/S 741 mmHg 57%
    20:00 +12°C° 0 mm 5 m/S 741 mmHg 60%
    21:00 +10°C° 0 mm 5 m/S 741 mmHg 64%
    22:00 +9°C° 0 mm 5 m/S 741 mmHg 65%
    23:00 +8°C° 0 mm 4 m/S 740 mmHg 67%
    Mehr zeigen